Meath Environmental Platform

Observations for Trim Patrick St

Time AQI Temp °C Hum % Pres Pa CO μg/m³ H₂S μg/m³ NO μg/m³ NO₂ μg/m³ O₃ μg/m³ SO₂ μg/m³ PM1 μg/m³ PM2.5 μg/m³ PM10 μg/m³
Saturday 8 August 2026
13:22 2 28.9 37 69,139 0 0 1.05 11.21 80.52 10.98 2 7.23 7.95
13:21 2 28.9 38 69,141 0 0 1.04 10 87.57 12.39 2 7.19 7.91
13:20 2 28.8 37 69,141 0 0 1.11 12.18 88.45 10.94 2.86 8.02 8.83
13:19 2 28.8 37 69,139 0 0 1.06 10.37 74.63 12.19 2.86 8.02 8.82
13:18 2 28.7 38 69,139 0 2.11 1.09 12.7 95.1 11.77 2 7.98 8.78
13:17 2 28.7 37 69,141 0 0 1.11 12.87 78.61 10.11 2 8 8.81
13:16 2 28.7 38 69,139 0 0 1.07 9.99 88.78 11.5 2 7.96 8.75
13:15 2 28.6 38 69,138 0 0 1.11 9.95 88.28 12.21 2 7.99 8.78
13:14 2 28.6 38 69,139 0 0 1.1 9.95 86.95 11.04 2 7.2 7.92
13:13 2 28.6 38 69,139 0 0 0.99 10.13 72.14 11.59 2.86 8.77 9.65
13:12 2 28.5 38 69,139 0 0.28 1.03 11.65 93.6 11.55 2 7.18 7.89
13:11 2 28.5 38 69,138 0 0 1.01 9.96 82.05 11.04 2 7.99 8.78
13:10 2 28.5 38 69,134 0 0 1 10.84 91.13 11.45 2.86 7.98 8.78
13:09 2 28.5 37 69,130 0 0 1.15 11.46 85.47 10.79 2 7.21 7.93
13:08 2 28.4 38 69,128 0 0 1.15 10.48 103.62 11.98 2 7.98 8.78
13:07 2 28.5 38 69,126 0 0 1.08 10.1 73.41 11.3 2 7.15 7.86
13:06 2 28.5 37 69,124 0 0 1.16 10.16 69.98 12.22 2 8.01 8.81
13:05 2 28.5 38 69,120 0 0 1.13 10.77 96.99 11.68 2 8.77 9.65
13:04 2 28.5 38 69,116 0 0 1.14 10.29 74.93 11.42 2.86 7.99 8.79
13:03 2 28.5 38 69,112 0 0 1.14 11.73 85.18 11 2 7.2 7.92